This demonstration page uses our WeatherBlox Daily Observations layout. Learn more.

Left ArrowRight Arrow

39.51506, -84.39828

Hourly Observations for March 15, 2018

Temp ( °F °C ) Dew Point ( °F °C ) Humidity (%) Winds ( mph kmh ) Pressure ( in mb ) Visibility ( mi km ) Precip ( " mm )
12:15 am 00:15 Clear 32 -0.2 19 -7.1 60 60 SW 9 15 29.94 1014 10 16.0934 N/A
12:35 am 00:35 Clear 32 -0.2 20 -6.8 61 61 SW 9 15 29.94 1014 10 16.0934 N/A
12:55 am 00:55 Clear 31 -0.7 20 -6.8 64 64 SW 9 15 29.94 1014 10 16.0934 N/A
1:15 am 01:15 Clear 32 undefined 20 -6.4 62 62 SW 9 15 29.91 1013 10 16.0934 N/A
1:35 am 01:35 Clear 32 0.2 21 -6.3 62 62 SW 9 15 29.91 1013 10 16.0934 N/A
1:55 am 01:55 Clear 33 0.3 21 -6.1 63 63 SW 9 15 29.88 1012 10 16.0934 N/A
2:15 am 02:15 Clear 33 0.4 21 -5.9 63 63 SW 10 17 29.88 1012 10 16.0934 N/A
2:35 am 02:35 Cloudy 34 1.1 22 -5.6 61 61 SW 13 20 29.88 1012 10 16.0934 N/A
2:55 am 02:55 Cloudy 35 1.4 22 -5.6 60 60 SW 13 20 29.88 1012 10 16.0934 N/A
3:15 am 03:15 Mostly Cloudy 35 1.4 22 -5.7 60 60 SW 12 19 29.85 1011 10 16.0934 N/A
3:35 am 03:35 Mostly Cloudy 34 1.2 22 -5.7 60 60 SW 10 17 29.85 1011 10 16.0934 N/A
3:55 am 03:55 Clear 34 1.1 22 -5.8 60 60 SW 13 20 29.85 1011 10 16.0934 N/A
4:15 am 04:15 Clear 33 0.6 22 -5.6 64 64 SW 13 20 29.83 1010 10 16.0934 N/A
4:35 am 04:35 Clear 33 0.3 22 -5.5 65 65 SW 10 17 29.83 1010 10 16.0934 N/A
4:55 am 04:55 Clear 32 -0.1 22 -5.5 67 67 SW 10 17 29.83 1010 10 16.0934 N/A
5:15 am 05:15 Clear 31 -0.6 22 -5.5 70 70 SW 9 15 29.83 1010 10 16.0934 N/A
5:35 am 05:35 Clear 31 -0.8 22 -5.8 69 69 SW 6 9 29.83 1010 10 16.0934 N/A
5:55 am 05:55 Clear 30 -1.1 22 -5.7 71 71 SW 8 13 29.83 1010 10 16.0934 N/A
6:15 am 06:15 Clear 29 -1.4 21 -6.1 71 71 WSW 5 7 29.83 1010 10 16.0934 N/A
6:35 am 06:35 Clear 28 -2.2 22 -5.7 77 77 WSW 7 11 29.83 1010 10 16.0934 N/A
6:55 am 06:55 Clear 29 -1.6 22 -5.3 76 76 W 7 11 29.85 1011 10 16.0934 N/A
7:15 am 07:15 Clear 32 -0.1 24 -4.6 72 72 W 10 17 29.85 1011 10 16.0934 N/A
7:35 am 07:35 Clear 34 0.9 24 -4.4 68 68 W 9 15 29.85 1011 10 16.0934 N/A
7:55 am 07:55 Sunny 34 1.2 24 -4.2 68 68 W 8 13 29.85 1011 10 16.0934 N/A
8:15 am 08:15 Sunny 34 1.1 25 -4.1 69 69 W 8 13 29.85 1011 10 16.0934 N/A
8:35 am 08:35 Sunny 35 1.6 25 -3.8 68 68 W 7 11 29.88 1012 10 16.0934 N/A
8:55 am 08:55 Sunny 36 2.4 26 -3.4 66 66 WNW 9 15 29.85 1011 10 16.0934 N/A
9:15 am 09:15 Sunny 38 3.1 26 -3.4 63 63 W 8 13 29.85 1011 10 16.0934 N/A
9:35 am 09:35 Sunny 39 3.8 26 -3.4 60 60 W 7 11 29.85 1011 10 16.0934 N/A
9:55 am 09:55 Sunny 40 4.6 26 -3.1 58 58 W 9 15 29.85 1011 10 16.0934 N/A
10:15 am 10:15 Sunny 42 5.6 26 -3.3 53 53 NW 7 11 29.85 1011 10 16.0934 N/A
10:35 am 10:35 Sunny 43 6.1 25 -3.7 50 50 NNW 10 17 29.85 1011 10 16.0934 N/A
10:55 am 10:55 Sunny 44 6.4 25 -3.7 49 49 WNW 9 15 29.85 1011 10 16.0934 N/A
11:15 am 11:15 Sunny 44 6.8 25 -3.9 47 47 NW 14 22 29.85 1011 10 16.0934 N/A
11:35 am 11:35 Sunny 45 7.3 24 -4.3 44 44 NNW 12 19 29.85 1011 10 16.0934 N/A
11:55 am 11:55 Sunny 46 8 24 -4.5 41 41 WNW 14 22 29.85 1011 10 16.0934 N/A
12:15 pm 12:15 Sunny 46 7.9 23 -5 40 40 NNW 14 22 29.85 1011 10 16.0934 N/A
12:35 pm 12:35 Sunny 47 8.4 23 -4.9 39 39 NNW 10 17 29.85 1011 10 16.0934 N/A
12:55 pm 12:55 Sunny 48 8.7 23 -5.2 37 37 NW 14 22 29.85 1011 10 16.0934 N/A
1:15 pm 13:15 Sunny 49 9.3 22 -5.7 34 34 W 14 22 29.85 1011 10 16.0934 N/A
1:35 pm 13:35 Sunny 49 9.7 22 -5.5 34 34 NW 13 20 29.85 1011 10 16.0934 N/A
1:55 pm 13:55 Sunny 49 9.7 22 -5.7 34 34 WNW 16 26 29.85 1011 10 16.0934 N/A
2:15 pm 14:15 Sunny 50 10.1 22 -5.7 33 33 W 14 22 29.85 1011 10 16.0934 N/A
2:35 pm 14:35 Sunny 51 10.4 22 -5.8 32 32 NW 16 26 29.85 1011 10 16.0934 N/A
2:55 pm 14:55 Sunny 50 10.2 21 -6.1 31 31 WNW 8 13 29.85 1011 10 16.0934 N/A
3:15 pm 15:15 Sunny 52 11 20 -6.6 29 29 WNW 15 24 29.85 1011 10 16.0934 N/A
3:35 pm 15:35 Sunny 52 11 19 -7.1 28 28 W 16 26 29.85 1011 10 16.0934 N/A
3:55 pm 15:55 Sunny 52 11.1 20 -6.9 28 28 WNW 17 28 29.85 1011 10 16.0934 N/A
4:15 pm 16:15 Sunny 52 11.1 19 -7.1 27 27 WNW 15 24 29.85 1011 10 16.0934 N/A
4:35 pm 16:35 Sunny 52 11.3 20 -6.7 28 28 NW 15 24 29.85 1011 10 16.0934 N/A
4:55 pm 16:55 Sunny 53 11.5 21 -6.1 29 29 NW 13 20 29.83 1010 10 16.0934 N/A
5:15 pm 17:15 Sunny 52 11.3 20 -6.8 28 28 NW 13 20 29.83 1010 10 16.0934 N/A
5:35 pm 17:35 Sunny 52 11.3 20 -6.5 28 28 NW 17 28 29.83 1010 10 16.0934 N/A
5:55 pm 17:55 Sunny 52 11.1 19 -7.1 27 27 NW 16 26 29.83 1010 10 16.0934 N/A
6:15 pm 18:15 Sunny 52 10.9 20 -6.9 28 28 NW 16 26 29.85 1011 10 16.0934 N/A
6:35 pm 18:35 Sunny 51 10.6 19 -7 29 29 NW 15 24 29.85 1011 10 16.0934 N/A
6:55 pm 18:55 Sunny 50 10.1 20 -6.8 30 30 WNW 13 20 29.85 1011 10 16.0934 N/A
7:15 pm 19:15 Sunny 49 9.3 21 -6.3 33 33 NW 12 19 29.85 1011 10 16.0934 N/A
7:35 pm 19:35 Sunny 47 8.6 21 -6.1 35 35 NNW 9 15 29.85 1011 10 16.0934 N/A
7:55 pm 19:55 Clear 46 7.5 21 -6 38 38 NNW 6 9 29.85 1011 10 16.0934 N/A
8:15 pm 20:15 Clear 45 7.2 22 -5.7 40 40 NNW 8 13 29.85 1011 10 16.0934 N/A
8:35 pm 20:35 Clear 44 6.9 22 -5.7 41 41 NNW 7 11 29.85 1011 10 16.0934 N/A
8:55 pm 20:55 Clear 44 6.4 23 -5.2 44 44 NNW 6 9 29.85 1011 10 16.0934 N/A
9:15 pm 21:15 Clear 42 5.8 23 -5 46 46 NW 5 7 29.85 1011 10 16.0934 N/A
9:35 pm 21:35 Clear 40 4.5 24 -4.6 52 52 NNW 3 6 29.88 1012 10 16.0934 N/A
9:55 pm 21:55 Clear 38 3.3 26 -3.4 62 62 N N/A 29.88 1012 10 16.0934 N/A
10:15 pm 22:15 Clear 36 2.1 26 -3.4 67 67 N 5 7 29.91 1013 10 16.0934 N/A
10:35 pm 22:35 Clear 35 1.9 25 -4 65 65 N 7 11 29.91 1013 10 16.0934 N/A
10:55 pm 22:55 Clear 37 2.6 25 -4 62 62 N 8 13 29.94 1014 10 16.0934 N/A
11:15 pm 23:15 Clear 38 3.6 25 -4.1 58 58 N 12 19 29.91 1013 10 16.0934 N/A
11:35 pm 23:35 Clear 38 3.5 24 -4.2 57 57 N 8 13 29.91 1013 10 16.0934 N/A
11:55 pm 23:55 Clear 37 2.9 25 -4.1 60 60 N 10 17 29.97 1015 10 16.0934 N/A

Powered by AerisWeather